OE6PWE-13 Weather Reports


time (UTC)temp
C
wind
direction
speed
KPH
gust
KPH
rain 1hr
cm
rain 24hr
cm
rain mn
cm
humidity
%
barometer
mb
20260508013018 7 0 0.0 0.0 0.00 0.00 0.00 99 1017.0
20260508011513 7 0 0.0 0.0 0.00 0.00 0.00 99 1017.0
20260508010021 7 0 0.0 0.0 0.00 0.00 0.00 99 1017.0
20260508004513 8 0 0.0 0.0 0.00 0.00 0.00 99 1017.0
20260508003020 8 0 0.0 0.0 0.00 0.00 0.00 99 1017.0
20260508001513 8 0 0.0 0.0 0.00 0.00 0.00 99 1017.0
20260508000020 8 0 0.0 0.0 0.00 0.00 0.00 99 1017.0
20260507234513 8 0 0.0 0.0 0.00 0.00 0.00 99 1017.0
20260507233020 9 0 0.0 0.0 0.00 0.00 0.00 99 1017.0
20260507231513 9 180 0.0 3.2 0.00 0.00 0.00 99 1017.0
20260507230020 9 0 0.0 3.2 0.00 0.00 0.00 99 1017.0
20260507224513 9 90 0.0 3.2 0.00 0.00 0.00 99 1017.0
20260507221513 9 0 0.0 3.2 0.00 0.00 0.00 99 1017.0
20260507220024 9 0 0.0 3.2 0.00 0.00 0.00 99 1017.0
20260507214513 10 0 0.0 0.0 0.00 0.00 0.00 99 1017.0
20260507213020 10 180 0.0 3.2 0.00 0.00 0.00 99 1017.0
20260507211513 10 180 0.0 3.2 0.00 0.00 0.00 99 1017.0
20260507204513 10 0 0.0 0.0 0.00 0.00 0.00 99 1017.0
20260507203019 10 90 0.0 3.2 0.00 0.00 0.00 99 1017.0
20260507201513 10 0 0.0 3.2 0.00 0.00 0.00 99 1017.0
20260507200020 10 45 0.0 4.8 0.00 0.00 0.00 99 1016.0
20260507194513 10 0 0.0 0.0 0.00 0.00 0.00 99 1016.0
20260507191513 10 0 0.0 3.2 0.00 0.00 0.00 99 1015.0
20260507190019 10 90 0.0 3.2 0.00 0.00 0.00 99 1015.0
20260507184513 10 135 1.6 6.4 0.00 0.00 0.00 99 1015.0
20260507183019 10 90 1.6 4.8 0.00 0.00 0.00 99 1015.0
20260507181513 10 17 1.6 9.7 0.00 0.00 0.00 98 1015.0
20260507174513 14 98 4.8 9.7 0.00 0.00 0.00 78 1014.0
20260507171513 16 40 3.2 12.9 0.00 0.00 0.00 66 1012.0
20260507170020 18 90 4.8 12.9 0.00 0.00 0.00 64 1011.0
20260507164513 20 90 1.6 6.4 0.00 0.00 0.00 67 1010.0
20260507163019 21 11 1.6 12.9 0.00 0.00 0.00 64 1009.0
20260507161513 21 300 3.2 6.4 0.00 0.00 0.00 59 1009.0
20260507160019 22 197 3.2 6.4 0.00 0.00 0.00 57 1009.0
20260507154513 22 135 3.2 9.7 0.00 0.00 0.00 55 1009.0
20260507153019 22 186 4.8 9.7 0.00 0.00 0.00 55 1009.0
20260507151513 22 185 4.8 12.9 0.00 0.00 0.00 56 1009.0
20260507150019 22 173 3.2 12.9 0.00 0.00 0.00 56 1009.0
20260507144513 22 172 3.2 12.9 0.00 0.00 0.00 54 1009.0
20260507143019 22 198 3.2 11.3 0.00 0.00 0.00 54 1009.0
20260507141513 23 200 3.2 11.3 0.00 0.00 0.00 50 1009.0
20260507140018 22 141 1.6 6.4 0.00 0.00 0.00 53 1009.0
20260507134513 23 190 3.2 6.4 0.00 0.00 0.00 54 1009.0
20260507133021 23 170 3.2 9.7 0.00 0.00 0.00 51 1009.0
20260507131513 24 211 3.2 9.7 0.00 0.00 0.00 49 1009.0
20260507130020 23 242 3.2 6.4 0.00 0.00 0.00 47 1010.0
20260507124513 23 209 3.2 9.7 0.00 0.00 0.00 50 1010.0
20260507123018 23 174 4.8 12.9 0.00 0.00 0.00 51 1010.0
20260507121513 22 198 3.2 11.3 0.00 0.00 0.00 51 1010.0
20260507120019 23 221 1.6 8.0 0.00 0.00 0.00 52 1010.0
20260507114513 22 167 1.6 6.4 0.00 0.00 0.00 53 1010.0
20260507113023 22 225 0.0 4.8 0.00 0.00 0.00 54 1010.0
20260507111513 22 173 1.6 6.4 0.00 0.00 0.00 55 1010.0
20260507110020 21 277 3.2 11.3 0.00 0.00 0.00 55 1011.0
20260507104513 21 217 1.6 4.8 0.00 0.00 0.00 54 1011.0
20260507101512 21 55 1.6 8.0 0.00 0.00 0.00 54 1011.0
20260507100019 20 198 4.8 9.7 0.00 0.00 0.00 57 1011.0
20260507094513 20 210 3.2 9.7 0.00 0.00 0.00 60 1011.0
20260507091513 19 204 3.2 9.7 0.00 0.00 0.00 67 1012.0
20260507090020 18 228 3.2 9.7 0.00 0.00 0.00 67 1012.0
20260507084513 18 223 1.6 6.4 0.00 0.00 0.00 71 1012.0
20260507083019 17 225 0.0 3.2 0.00 0.00 0.00 70 1011.0
20260507081513 17 235 1.6 4.8 0.00 0.00 0.00 73 1012.0
20260507074513 16 259 0.0 3.2 0.00 0.00 0.00 75 1012.0
20260507071513 16 270 0.0 3.2 0.00 0.00 0.00 77 1011.0
20260507070020 15 0 0.0 0.0 0.00 0.00 0.00 81 1011.0
20260507064513 14 0 0.0 3.2 0.00 0.00 0.00 85 1011.0
20260507063021 13 0 0.0 0.0 0.00 0.00 0.00 86 1011.0
20260507061513 13 270 0.0 3.2 0.00 0.00 0.00 87 1011.0
20260507060019 13 0 0.0 0.0 0.00 0.00 0.00 87 1011.0
20260507054513 12 0 0.0 0.0 0.00 0.00 0.00 88 1011.0
20260507053020 12 0 0.0 0.0 0.00 0.00 0.00 88 1011.0
20260507051513 12 0 0.0 0.0 0.00 0.00 0.00 88 1011.0
20260507050021 12 0 0.0 0.0 0.00 0.00 0.00 89 1011.0
20260507044513 12 270 0.0 3.2 0.00 0.00 0.00 88 1010.0
20260507043019 12 0 0.0 3.2 0.00 0.00 0.00 86 1010.0
20260507041513 12 0 0.0 0.0 0.00 0.00 0.00 87 1010.0
20260507040021 13 270 0.0 3.2 0.00 0.00 0.00 85 1010.0
20260507034512 13 0 1.6 3.2 0.00 0.00 0.00 83 1010.0
20260507033020 14 270 0.0 3.2 0.00 0.00 0.00 80 1009.0
20260507031513 15 170 3.2 11.3 0.00 0.00 0.00 79 1009.0
20260507030020 15 185 3.2 12.9 0.00 0.00 0.00 77 1009.0
20260507024513 15 180 1.6 4.8 0.00 0.00 0.00 76 1009.0
20260507021513 15 185 4.8 16.1 0.00 0.00 0.00 74 1010.0
20260507020019 15 188 4.8 11.3 0.00 0.00 0.00 75 1010.0
20260507014513 15 191 3.2 8.0 0.00 0.00 0.00 75 1009.0